Skip Page Navigation
NASA JPL Caltech
NASA Logo - Jet Propulsion Laboratory + View the NASA Portal
+ Center for Near-Earth Object Studies
JPL Home Earth Solar System Stars & Galaxies Technology
JPL Solar System Dynamics
BODIES ORBITS EPHEMERIDES TOOLS PHYSICAL DATA DISCOVERY FAQ SITE MAP
IMPORTANT: The SSD Announcement email list is now available. Major changes are coming in the near future, including possible hostname and/or URL changes. To be notified of such changes, subscribe to this email list.

Please visit this page for more details.


JPL Small-Body Database Browser
Search: [ help ]  
26022 (4180 P-L)
Classification: Main-belt Asteroid          SPK-ID: 2026022
Ephemeris | Orbit Diagram | Orbital Elements | Mission Design | Physical Parameters | Discovery Circumstances ]

[ show orbit diagram ]
Orbital Elements at Epoch 2459000.5 (2020-May-31.0) TDB
Reference: JPL 18 (heliocentric ecliptic J2000)
 Element Value Uncertainty (1-sigma)   Units 
e .07420024240819344 5.6624e-08  
a 2.310700438712087 1.0124e-08 au
q 2.139245906026932 1.3091e-07 au
i 2.152579147938109 5.329e-06 deg
node 331.940945103072 0.00013263 deg
peri 205.6970607625269 0.00013655 deg
M 181.258941838193 3.2204e-05 deg
tp 2459637.494556387960
(2022-Feb-26.99455639)
0.00011539 TDB
period 1282.962306802912
3.51
8.432e-06
2.309e-08
d
yr
n .2806006054044602 1.8442e-09 deg/d
Q 2.482154971397243 1.0876e-08 au
  Orbit Determination Parameters
   # obs. used (total)      881  
   data-arc span      21005 days (57.51 yr)  
   first obs. used      1960-09-24  
   last obs. used      2018-03-29  
   planetary ephem.      DE431  
   SB-pert. ephem.      SB431-N16  
   condition code      0  
   norm. resid. RMS      .57419  
   source      ORB  
   producer      Otto Matic  
   solution date      2019-Jul-13 00:55:17  

Additional Information
 Earth MOID = 1.1431 au 
 Jupiter MOID = 2.48086 au 
 T_jup = 3.580 
[ show covariance matrix ]

Ephemeris | Orbit Diagram | Orbital Elements | Mission Design | Physical Parameters | Discovery Circumstances ]

Physical Parameter Table
Parameter Symbol Value Units Sigma Reference Notes
absolute magnitude H 15.4   n/a MPO279786  
rotation period rot_per 5.4 h n/a LCDB (Rev. 2019-August); Warner et al., 2009 Result based on less than full coverage, so that the period may be wrong by 30 percent or so.
Published Reference List:
[Clark, M. (2014) Minor Planet Bull. 41, 178-183.]

26022 (4180 P-L)          Discovered 1960-Sep-24 by van Houten, C. J., van Houten-Groeneveld, I., Gehrels, T. at Palomar
Reference: 20010606/Numbers.arcLast Updated: 2004-04-19

Alternate Designations
 4180 P-L = 1999 VQ162 
Ephemeris | Orbit Diagram | Orbital Elements | Mission Design | Physical Parameters | Discovery Circumstances ]
ABOUT SSD CREDITS/AWARDS PRIVACY/COPYRIGHT GLOSSARY LINKS
FirstGov 2020-Apr-01 18:42 UT
(server date/time)  
NASA Home Page
Site Manager:   Ryan S. Park
Webmaster  Alan B. Chamberlin